Gustavus, AK

7:25 AM AKST on December 07, 2016 (GMT -0900)
Gustavus

Weather History for PAGS - September, 2012

Change the Weather History Date:

Saturday, September 8, 2012

  Actual Average Record
Temperature  
Mean Temperature 50 °F -  
Max Temperature 53 °F 60 °F 72 °F (1986)
Min Temperature 46 °F 40 °F 25 °F (1986)
Degree Days  
Heating Degree Days 16    
Moisture  
Dew Point 45 °F    
Average Humidity 83    
Maximum Humidity 93    
Minimum Humidity 72    
Precipitation  
Precipitation 0.00 in - - ()
Sea Level Pressure  
Sea Level Pressure 29.75 in    
Wind  
Wind Speed 2 mph (NW)    
Max Wind Speed 9 mph    
Max Gust Speed -    
Visibility 9 miles    
Events      
Averages and records for this station are not official NWS values.
T = Trace of Precipitation, MM = Missing Value Source: NWS Daily Summary

Daily Weather History Graph

Daily Weather History Graph

Search for Another Location

Airport or City:

Trip Planner

Search our weather history database for the weather conditions in past years. The results will help you decide how hot, cold, wet, or windy it might be!

Date:

Astronomy

Sep. 08, 2012 Rise Set
Actual Time 6:18 AM AKDT 7:40 PM AKDT
Civil Twilight 5:37 AM AKDT 8:21 PM AKDT
Nautical Twilight 4:46 AM AKDT 9:12 PM AKDT
Astronomical Twilight 3:46 AM AKDT 10:10 PM AKDT
Moon 10:52 PM AKDT (9/8) 3:48 PM AKDT (9/8)
Length of Visible Light 14h 44m
Length of Day
13h 22m
Waning Gibbous, 47% of the Moon is Illuminated
Sep 8
Waning Gibbous
Sep 15
New
Sep 22
First Quarter
Sep 29
Full
Oct 7
Last Quarter

Hourly Weather History & Observations

Time (AKDT) Temp. Dew Point Humidity Pressure Visibility Wind Dir Wind Speed Gust Speed Precip Events Conditions
12:16 AM 51.8 °F 46.4 °F 82% 29.98 in 10.0 mi Calm Calm - N/A   Overcast
12:36 AM 51.8 °F 46.4 °F 82% 29.98 in 10.0 mi SSW 3.5 mph - N/A   Overcast
12:56 AM 53.6 °F 46.4 °F 77% 29.99 in 10.0 mi South 3.5 mph - N/A   Overcast
1:16 AM 51.8 °F 46.4 °F 82% 29.99 in 10.0 mi Calm Calm - N/A   Overcast
1:36 AM 51.8 °F 46.4 °F 82% 29.99 in 10.0 mi Calm Calm - N/A   Overcast
1:56 AM 51.8 °F 46.4 °F 82% 29.99 in 10.0 mi South 3.5 mph - N/A   Overcast
2:16 AM 51.8 °F 46.4 °F 82% 29.99 in 10.0 mi South 3.5 mph - N/A   Overcast
2:36 AM 51.8 °F 46.4 °F 82% 29.99 in 10.0 mi South 3.5 mph - N/A   Overcast
2:56 AM 51.8 °F 44.6 °F 76% 29.99 in 10.0 mi Calm Calm - N/A   Overcast
3:16 AM 51.8 °F 44.6 °F 76% 29.98 in 10.0 mi Calm Calm - N/A   Overcast
3:36 AM 51.8 °F 44.6 °F 76% 29.98 in 10.0 mi Calm Calm - N/A   Overcast
3:56 AM 51.8 °F 44.6 °F 76% 29.97 in 10.0 mi Calm Calm - N/A   Overcast
4:16 AM 51.8 °F 44.6 °F 76% 29.97 in 10.0 mi Calm Calm - N/A   Overcast
4:36 AM 50.0 °F 44.6 °F 82% 29.97 in 10.0 mi Calm Calm - N/A   Overcast
4:56 AM 50.0 °F 46.4 °F 87% 29.97 in 10.0 mi Calm Calm - N/A   Overcast
5:16 AM 50.0 °F 44.6 °F 82% 29.96 in 10.0 mi Calm Calm - N/A   Overcast
5:36 AM 50.0 °F 44.6 °F 82% 29.96 in 10.0 mi Calm Calm - N/A   Overcast
5:56 AM 50.0 °F 44.6 °F 82% 29.95 in 10.0 mi Calm Calm - N/A   Overcast
6:16 AM 50.0 °F 44.6 °F 82% 29.94 in 10.0 mi ENE 4.6 mph - N/A   Overcast
6:36 AM 48.2 °F 44.6 °F 87% 29.93 in 10.0 mi Calm Calm - N/A   Partly Cloudy
6:56 AM 46.4 °F 42.8 °F 87% 29.92 in 2.5 mi Calm Calm - N/A   Partly Cloudy
7:16 AM 46.4 °F 42.8 °F 87% 29.91 in 0.8 mi Calm Calm - N/A   Scattered Clouds
7:36 AM 46.4 °F 42.8 °F 87% 29.90 in 1.0 mi Calm Calm - N/A   Clear
7:56 AM 46.4 °F 42.8 °F 87% 29.90 in 7.0 mi Calm Calm - N/A   Clear
8:16 AM 48.2 °F 44.6 °F 87% 29.89 in 10.0 mi Calm Calm - N/A   Clear
8:36 AM 48.2 °F 46.4 °F 93% 29.89 in 10.0 mi NW 3.5 mph - N/A   Clear
8:56 AM 50.0 °F 46.4 °F 87% 29.88 in 10.0 mi Calm Calm - N/A   Clear
9:16 AM 51.8 °F 46.4 °F 82% 29.87 in 10.0 mi Calm Calm - N/A   Clear
9:36 AM 51.8 °F 46.4 °F 82% 29.86 in 10.0 mi NNW 3.5 mph - N/A   Clear
9:56 AM 51.8 °F 46.4 °F 82% 29.85 in 10.0 mi NNW 3.5 mph - N/A   Clear
10:16 AM 53.6 °F 46.4 °F 77% 29.84 in 10.0 mi Calm Calm - N/A   Scattered Clouds
10:36 AM 53.6 °F 44.6 °F 72% 29.83 in 10.0 mi NNW 3.5 mph - N/A   Mostly Cloudy
10:56 AM 53.6 °F 44.6 °F 72% 29.82 in 10.0 mi Calm Calm - N/A   Overcast
11:16 AM 53.6 °F 46.4 °F 77% 29.81 in 10.0 mi WNW 4.6 mph - N/A   Overcast
11:36 AM 53.6 °F 46.4 °F 77% 29.80 in 10.0 mi NW 3.5 mph - N/A   Overcast
11:56 AM 53.6 °F 46.4 °F 77% 29.78 in 10.0 mi Calm Calm - N/A   Overcast
12:16 PM 53.6 °F 46.4 °F 77% 29.77 in 10.0 mi Calm Calm - N/A   Overcast
12:36 PM 53.6 °F 46.4 °F 77% 29.76 in 9.0 mi SE 4.6 mph - N/A   Overcast
12:56 PM 53.6 °F 46.4 °F 77% 29.75 in 10.0 mi Calm Calm - N/A   Overcast
1:16 PM 53.6 °F 46.4 °F 77% 29.74 in 10.0 mi SW 3.5 mph - N/A   Overcast
1:36 PM 53.6 °F 46.4 °F 77% 29.72 in 5.0 mi NW 4.6 mph - N/A   Overcast
1:56 PM 51.8 °F 46.4 °F 82% 29.71 in 3.0 mi Calm Calm - N/A   Overcast
2:16 PM 51.8 °F 46.4 °F 82% 29.69 in 8.0 mi NNW 8.1 mph - N/A   Overcast
2:36 PM 51.8 °F 46.4 °F 82% 29.68 in 7.0 mi NW 4.6 mph - N/A   Overcast
2:56 PM 50.0 °F 44.6 °F 82% 29.67 in 5.0 mi NW 4.6 mph - N/A   Overcast
3:16 PM 50.0 °F 44.6 °F 82% 29.65 in 8.0 mi NNW 8.1 mph - N/A   Overcast
3:36 PM 48.2 °F 44.6 °F 87% 29.63 in 9.0 mi NNW 9.2 mph - N/A   Overcast
3:56 PM 48.2 °F 44.6 °F 87% 29.63 in 7.0 mi NNW 6.9 mph - N/A   Overcast
4:16 PM 48.2 °F 44.6 °F 87% 29.61 in 10.0 mi NNW 5.8 mph - N/A   Overcast
4:36 PM 48.2 °F 44.6 °F 87% 29.59 in 9.0 mi North 6.9 mph - N/A   Mostly Cloudy
4:56 PM 48.2 °F 44.6 °F 87% 29.57 in 10.0 mi NNW 5.8 mph - N/A   Overcast
5:16 PM 48.2 °F 44.6 °F 87% 29.57 in 6.0 mi West 5.8 mph - N/A   Overcast
5:36 PM 48.2 °F 44.6 °F 87% 29.57 in 9.0 mi Calm Calm - N/A   Overcast
5:56 PM 48.2 °F 44.6 °F 87% 29.55 in 9.0 mi North 4.6 mph - N/A   Overcast
6:16 PM 48.2 °F 44.6 °F 87% 29.55 in 10.0 mi NW 3.5 mph - N/A   Overcast
6:36 PM 48.2 °F 44.6 °F 87% 29.53 in 4.0 mi NNW 9.2 mph - N/A   Overcast
6:56 PM 48.2 °F 44.6 °F 87% 29.52 in 7.0 mi North 4.6 mph - N/A   Overcast
7:16 PM 48.2 °F 44.6 °F 87% 29.52 in 6.0 mi West 4.6 mph - N/A   Overcast
7:36 PM 48.2 °F 42.8 °F 82% 29.52 in 3.0 mi West 6.9 mph - N/A   Overcast
7:56 PM 48.2 °F 44.6 °F 87% 29.53 in 9.0 mi Calm Calm - N/A   Overcast
8:16 PM 48.2 °F 44.6 °F 87% 29.52 in 10.0 mi North 4.6 mph - N/A   Overcast
8:36 PM 48.2 °F 44.6 °F 87% 29.52 in 10.0 mi NNW 4.6 mph - N/A   Overcast
8:56 PM 48.2 °F 44.6 °F 87% 29.52 in 10.0 mi Calm Calm - N/A   Overcast
9:16 PM 48.2 °F 44.6 °F 87% 29.51 in 10.0 mi North 4.6 mph - N/A   Overcast
9:36 PM 48.2 °F 42.8 °F 82% 29.50 in 10.0 mi ENE 4.6 mph - N/A   Overcast
9:56 PM 48.2 °F 44.6 °F 87% 29.50 in 10.0 mi Calm Calm - N/A   Overcast
10:16 PM 48.2 °F 44.6 °F 87% 29.49 in 10.0 mi Calm Calm - N/A   Overcast
10:36 PM 48.2 °F 44.6 °F 87% 29.48 in 10.0 mi ENE 3.5 mph - N/A   Overcast
10:56 PM 48.2 °F 44.6 °F 87% 29.48 in 10.0 mi SE 3.5 mph - N/A   Overcast
11:16 PM 48.2 °F 44.6 °F 87% 29.48 in 10.0 mi ESE 3.5 mph - N/A   Overcast
11:36 PM 48.2 °F 44.6 °F 87% 29.47 in 10.0 mi Calm Calm - N/A   Overcast
11:56 PM 48.2 °F 44.6 °F 87% 29.47 in 10.0 mi Calm Calm - N/A   Overcast